Regional Weather Roundup
Issued by NWS

Home | Current Version | Previous Version | Text Only | Print | Product List | Glossary On
Versions: 1 2 3 4 5 6 7 8 9 10 11 12 13 14 15 16 17 18 19 20 21 22 23 24 25 26 27
000
ASUS45 KREV 180110
RWRNV
NEVADA REGIONAL WEATHER ROUNDUP
NATIONAL WEATHER SERVICE RENO NV
500 PM PST FRI NOV 17 2017

NOTE: "FAIR" INDICATES FEW OR NO CLOUDS BELOW 12,000 FEET WITH NO
SIGNIFICANT WEATHER AND/OR OBSTRUCTIONS TO VISIBILITY.

NVZ001-003-004-180200-
WESTERN NEVADA

CITY           SKY/WX    TMP DP  RH WIND       PRES   REMARKS
RENO           PTCLDY    42  18  37 NE3       30.22R
CARSON CITY    FAIR      39  18  41 NE7       30.23R
MINDEN         FAIR      37  23  56 NW9       30.21R
SLIDE MTN        N/A     16  14  93 MISG        N/A
PYRAMID LAKE     N/A     41 N/A N/A SW5         N/A
FALLON         PTCLDY    40  22  48 N3        30.23R
LOVELOCK       PTCLDY    42  15  33 CALM      30.24R
HAWTHORNE      CLEAR     41  23  48 NW9       30.23R
$$

NVZ002-CAZ072-073-180200-
NORTHERN AND CENTRAL SIERRA

CITY           SKY/WX    TMP DP  RH WIND       PRES   REMARKS
S. LAKE TAHOE  FAIR      31  24  75 CALM      30.19R
TRUCKEE        CLEAR     34  25  69 CALM      30.21R
SQUAW VLY 8000 NOT AVBL
SUSANVILLE     CLEAR     39  23  52 E6        30.23R
BLUE CANYON    CLEAR     35  24  64 NE3       30.19R
MAMMOTH LAKES  FAIR      36  26  68 CALM      30.18R
$$

NVZ030-031-036-180200-
NORTHERN NEVADA

CITY           SKY/WX    TMP DP  RH WIND       PRES   REMARKS
ELKO           PTCLDY    31  23  72 NW7       30.21R
WINNEMUCCA     PTCLDY    35  23  61 NW5       30.24R
WENDOVER       PTCLDY    37  20  50 NW14      30.19R
$$

NVZ035-037-180200-
CENTRAL NEVADA

CITY           SKY/WX    TMP DP  RH WIND       PRES   REMARKS
ELY            PTCLDY    29  18  63 N8        30.19R
EUREKA           N/A     29  23  78 NW3       30.21R
$$

NVZ013-014-180200-
SOUTH CENTRAL NEVADA

CITY           SKY/WX    TMP DP  RH WIND       PRES   REMARKS
TONOPAH        PTCLDY    40  15  36 NW20G29   30.19R
$$

NVZ017-020-022-180200-
SOUTHERN NEVADA

CITY           SKY/WX    TMP DP  RH WIND       PRES   REMARKS
LAS VEGAS      PTCLDY    73  39  29 W10       29.91R
N. LAS VEGAS   PTCLDY    73  32  22 NW9       29.90R
NELLIS AFB     PTCLDY    75  35  23 NW14G24   29.89R
HENDERSON      PTCLDY    70  37  29 NW5       29.95R
MERCURY        PTCLDY    60  22  23 NE23G37   30.00R
$$




USA.gov is the U.S. government's official web portal to all federal, state and local government web resources and services.